TimeEST,TemperatureF,Dew PointF,Humidity,Sea Level PressureIn,VisibilityMPH,Wind Direction,Wind SpeedMPH,Gust SpeedMPH,PrecipitationIn,Events,Conditions,WindDirDegrees,DateUTC
12:53 AM,62.1,52.0,70,30.13,10.0,NW,13.8,19.6,N/A,,Clear,320,2012-12-30 05:53:00
1:53 AM,57.9,51.1,78,30.14,10.0,NNW,16.1,25.3,N/A,,Clear,340,2012-12-30 06:53:00
2:53 AM,55.9,50.0,80,30.16,10.0,NNW,12.7,-,N/A,,Clear,340,2012-12-30 07:53:00
3:53 AM,55.0,50.0,83,30.17,10.0,NNW,10.4,-,N/A,,Clear,340,2012-12-30 08:53:00
4:53 AM,55.0,48.0,77,30.17,10.0,NNW,11.5,-,N/A,,Clear,340,2012-12-30 09:53:00
5:53 AM,54.0,48.0,80,30.19,10.0,North,10.4,-,N/A,,Clear,360,2012-12-30 10:53:00
6:53 AM,53.1,48.0,83,30.21,10.0,North,12.7,-,N/A,,Clear,360,2012-12-30 11:53:00
7:53 AM,53.1,46.9,80,30.24,10.0,North,15.0,23.0,N/A,,Clear,360,2012-12-30 12:53:00
8:53 AM,54.0,45.0,72,30.26,10.0,North,20.7,-,N/A,,Clear,350,2012-12-30 13:53:00
9:53 AM,57.0,46.0,67,30.28,10.0,NNE,17.3,-,N/A,,Clear,20,2012-12-30 14:53:00
10:53 AM,61.0,48.0,62,30.27,10.0,North,12.7,-,N/A,,Clear,360,2012-12-30 15:53:00
11:53 AM,63.0,48.9,60,30.26,10.0,NNE,12.7,-,N/A,,Clear,30,2012-12-30 16:53:00
12:53 PM,66.0,50.0,56,30.24,10.0,NNE,13.8,-,N/A,,Clear,20,2012-12-30 17:53:00
1:53 PM,69.1,51.1,53,30.21,10.0,NNE,17.3,23.0,N/A,,Clear,30,2012-12-30 18:53:00
2:53 PM,70.0,52.0,53,30.21,10.0,NE,16.1,-,N/A,,Partly Cloudy,40,2012-12-30 19:53:00
3:53 PM,71.1,53.1,53,30.22,10.0,NE,15.0,23.0,N/A,,Scattered Clouds,40,2012-12-30 20:53:00
4:53 PM,69.1,52.0,54,30.23,10.0,NNE,12.7,-,N/A,,Mostly Cloudy,30,2012-12-30 21:53:00
5:53 PM,66.9,52.0,59,30.25,10.0,NE,12.7,-,N/A,,Mostly Cloudy,40,2012-12-30 22:53:00
6:53 PM,66.0,53.1,63,30.26,10.0,NE,10.4,-,N/A,,Scattered Clouds,40,2012-12-30 23:53:00
7:53 PM,66.0,53.1,63,30.27,10.0,ENE,8.1,-,N/A,,Mostly Cloudy,70,2012-12-31 00:53:00
8:53 PM,62.1,55.0,78,30.28,10.0,North,9.2,-,N/A,,Overcast,360,2012-12-31 01:53:00
9:53 PM,60.1,55.0,83,30.28,10.0,North,6.9,-,N/A,,Mostly Cloudy,360,2012-12-31 02:53:00
10:53 PM,60.1,54.0,80,30.28,10.0,Variable,3.5,-,N/A,,Mostly Cloudy,0,2012-12-31 03:53:00
11:53 PM,66.0,54.0,65,30.27,10.0,East,11.5,-,N/A,,Overcast,80,2012-12-31 04:53:00